| time (UTC) | temp C | wind direction | speed KPH | gust KPH | rain 1hr cm | rain 24hr cm | rain mn cm | humidity % | barometer mb |
| 20260503193156 | 16 | 229 | 11.3 | 17.7 | 0.00 | 0.00 | 0.00 | 40 | 977.0 |
| 20260503192655 | 16 | 248 | 19.3 | 30.6 | 0.00 | 0.00 | 0.00 | 38 | 976.0 |
| 20260503192155 | 17 | 207 | 14.5 | 25.7 | 0.00 | 0.00 | 0.00 | 38 | 977.0 |
| 20260503191655 | 16 | 167 | 11.3 | 25.7 | 0.00 | 0.00 | 0.00 | 38 | 977.0 |
| 20260503191155 | 16 | 253 | 17.7 | 29.0 | 0.00 | 0.00 | 0.00 | 37 | 977.0 |
| 20260503190656 | 16 | 218 | 3.2 | 17.7 | 0.00 | 0.00 | 0.00 | 40 | 977.0 |
| 20260503190158 | 16 | 278 | 9.7 | 12.9 | 0.00 | 0.00 | 0.00 | 39 | 977.0 |
| 20260503185655 | 16 | 296 | 22.5 | 30.6 | 0.00 | 0.00 | 0.00 | 38 | 977.0 |
| 20260503185156 | 16 | 249 | 16.1 | 29.0 | 0.00 | 0.00 | 0.00 | 37 | 977.0 |
| 20260503184655 | 17 | 189 | 6.4 | 14.5 | 0.00 | 0.00 | 0.00 | 38 | 977.0 |
| 20260503184155 | 17 | 271 | 14.5 | 27.4 | 0.00 | 0.00 | 0.00 | 38 | 977.0 |
| 20260503183655 | 17 | 211 | 3.2 | 33.8 | 0.00 | 0.00 | 0.00 | 41 | 978.0 |
| 20260503183158 | 17 | 244 | 12.9 | 33.8 | 0.00 | 0.00 | 0.00 | 39 | 978.0 |
| 20260503182655 | 16 | 230 | 16.1 | 24.1 | 0.00 | 0.00 | 0.00 | 37 | 977.0 |
| 20260503182156 | 16 | 226 | 9.7 | 35.4 | 0.00 | 0.00 | 0.00 | 38 | 978.0 |
| 20260503181655 | 16 | 219 | 11.3 | 25.7 | 0.00 | 0.00 | 0.00 | 38 | 978.0 |
| 20260503181155 | 16 | 270 | 17.7 | 27.4 | 0.00 | 0.00 | 0.00 | 35 | 978.0 |
| 20260503180656 | 17 | 282 | 32.2 | 38.6 | 0.00 | 0.00 | 0.00 | 37 | 978.0 |
| 20260503180155 | 16 | 274 | 17.7 | 20.9 | 0.00 | 0.00 | 0.00 | 40 | 978.0 |
| 20260503175655 | 16 | 214 | 17.7 | 22.5 | 0.00 | 0.00 | 0.00 | 39 | 978.0 |
| 20260503175155 | 16 | 273 | 12.9 | 20.9 | 0.00 | 0.00 | 0.00 | 39 | 978.0 |
| 20260503174655 | 15 | 286 | 11.3 | 33.8 | 0.00 | 0.00 | 0.00 | 38 | 978.0 |
| 20260503174155 | 16 | 232 | 17.7 | 30.6 | 0.00 | 0.00 | 0.00 | 36 | 978.0 |
| 20260503173656 | 16 | 226 | 12.9 | 29.0 | 0.00 | 0.00 | 0.00 | 35 | 978.0 |
| 20260503173155 | 16 | 250 | 14.5 | 20.9 | 0.00 | 0.00 | 0.00 | 39 | 978.0 |
| 20260503172655 | 15 | 224 | 9.7 | 24.1 | 0.00 | 0.00 | 0.00 | 38 | 978.0 |
| 20260503172156 | 16 | 256 | 12.9 | 17.7 | 0.00 | 0.00 | 0.00 | 37 | 978.0 |
| 20260503171655 | 16 | 262 | 11.3 | 22.5 | 0.00 | 0.00 | 0.00 | 40 | 978.0 |
| 20260503171156 | 15 | 246 | 6.4 | 12.9 | 0.00 | 0.00 | 0.00 | 45 | 978.0 |
| 20260503170655 | 14 | 266 | 8.0 | 22.5 | 0.00 | 0.00 | 0.00 | 44 | 979.0 |
| 20260503170156 | 14 | 217 | 19.3 | 25.7 | 0.00 | 0.00 | 0.00 | 42 | 979.0 |
| 20260503160201 | 12 | 281 | 6.4 | 14.5 | 0.00 | 0.00 | 0.00 | 46 | 979.0 |
| 20260503150655 | 13 | 266 | 12.9 | 20.9 | 0.00 | 0.00 | 0.00 | 41 | 980.0 |
| 20260503150155 | 13 | 279 | 14.5 | 35.4 | 0.00 | 0.00 | 0.00 | 41 | 980.0 |
| 20260503140155 | 12 | 225 | 9.7 | 16.1 | 0.00 | 0.00 | 0.00 | 45 | 980.0 |
| 20260503131155 | 10 | 265 | 8.0 | 12.9 | 0.00 | 0.00 | 0.00 | 50 | 980.0 |
| 20260503130655 | 10 | 284 | 8.0 | 16.1 | 0.00 | 0.00 | 0.00 | 54 | 980.0 |
| 20260503130155 | 9 | 246 | 9.7 | 14.5 | 0.00 | 0.00 | 0.00 | 52 | 980.0 |
| 20260503120155 | 7 | 269 | 4.8 | 9.7 | 0.00 | 0.00 | 0.00 | 55 | 980.0 |
| 20260503110655 | 3 | 170 | 0.0 | 1.6 | 0.00 | 0.00 | 0.00 | 66 | 980.0 |
| 20260503110155 | 3 | 151 | 1.6 | 3.2 | 0.00 | 0.00 | 0.00 | 66 | 980.0 |
| 20260503100156 | 3 | 157 | 1.6 | 4.8 | 0.00 | 0.00 | 0.00 | 63 | 980.0 |
| 20260503090155 | 3 | 171 | 0.0 | 1.6 | 0.00 | 0.00 | 0.00 | 60 | 981.0 |
| 20260503081155 | 2 | 186 | 0.0 | 0.0 | 0.00 | 0.00 | 0.00 | 63 | 981.0 |
| 20260503080655 | 2 | 198 | 1.6 | 3.2 | 0.00 | 0.00 | 0.00 | 63 | 981.0 |
| 20260503080155 | 2 | 186 | 0.0 | 0.0 | 0.00 | 0.00 | 0.00 | 63 | 981.0 |
| 20260503072657 | 2 | 179 | 0.0 | 3.2 | 0.00 | 0.00 | 0.00 | 62 | 981.0 |
| 20260503072155 | 2 | 183 | 0.0 | 0.0 | 0.00 | 0.00 | 0.00 | 62 | 981.0 |
| 20260503071656 | 2 | 224 | 1.6 | 3.2 | 0.00 | 0.00 | 0.00 | 63 | 981.0 |
| 20260503071155 | 2 | 203 | 0.0 | 1.6 | 0.00 | 0.00 | 0.00 | 63 | 981.0 |
| 20260503070655 | 2 | 197 | 1.6 | 3.2 | 0.00 | 0.00 | 0.00 | 62 | 981.0 |
| 20260503070155 | 2 | 195 | 0.0 | 1.6 | 0.00 | 0.00 | 0.00 | 63 | 981.0 |
| 20260503060155 | 0 | 180 | 0.0 | 0.0 | 0.00 | 0.00 | 0.00 | 76 | 982.0 |
| 20260503054655 | 0 | 180 | 0.0 | 0.0 | 0.00 | 0.00 | 0.00 | 77 | 982.0 |
| 20260503054155 | 0 | 180 | 0.0 | 0.0 | 0.00 | 0.00 | 0.00 | 77 | 982.0 |
| 20260503053655 | 0 | 180 | 0.0 | 0.0 | 0.00 | 0.00 | 0.00 | 78 | 982.0 |
| 20260503053159 | 0 | 180 | 0.0 | 0.0 | 0.00 | 0.00 | 0.00 | 78 | 982.0 |
| 20260503052655 | 0 | 180 | 0.0 | 0.0 | 0.00 | 0.00 | 0.00 | 79 | 982.0 |
| 20260503052156 | 0 | 180 | 0.0 | 0.0 | 0.00 | 0.00 | 0.00 | 79 | 982.0 |
| 20260503051655 | 0 | 180 | 0.0 | 0.0 | 0.00 | 0.00 | 0.00 | 79 | 982.0 |
| 20260503051156 | 0 | 180 | 0.0 | 0.0 | 0.00 | 0.00 | 0.00 | 79 | 982.0 |
| 20260503050656 | 0 | 180 | 0.0 | 0.0 | 0.00 | 0.00 | 0.00 | 79 | 982.0 |
| 20260503050156 | 0 | 180 | 0.0 | 0.0 | 0.00 | 0.00 | 0.00 | 78 | 982.0 |
| 20260503045655 | 0 | 180 | 0.0 | 0.0 | 0.00 | 0.00 | 0.00 | 79 | 982.0 |
| 20260503045155 | 0 | 180 | 0.0 | 0.0 | 0.00 | 0.00 | 0.00 | 80 | 982.0 |
| 20260503044656 | 0 | 180 | 0.0 | 0.0 | 0.00 | 0.00 | 0.00 | 80 | 982.0 |
| 20260503044155 | 0 | 180 | 0.0 | 0.0 | 0.00 | 0.00 | 0.00 | 80 | 982.0 |
| 20260503043655 | 0 | 180 | 0.0 | 0.0 | 0.00 | 0.00 | 0.00 | 80 | 982.0 |
| 20260503043155 | 0 | 180 | 0.0 | 0.0 | 0.00 | 0.00 | 0.00 | 81 | 982.0 |
| 20260503042655 | 0 | 180 | 0.0 | 0.0 | 0.00 | 0.00 | 0.00 | 81 | 982.0 |
| 20260503042155 | 0 | 180 | 0.0 | 0.0 | 0.00 | 0.00 | 0.00 | 81 | 982.0 |
| 20260503041655 | 0 | 180 | 0.0 | 0.0 | 0.00 | 0.00 | 0.00 | 80 | 982.0 |
| 20260503041155 | 0 | 180 | 0.0 | 0.0 | 0.00 | 0.00 | 0.00 | 81 | 982.0 |
| 20260503040656 | 0 | 180 | 0.0 | 0.0 | 0.00 | 0.00 | 0.00 | 81 | 982.0 |
| 20260503040155 | 0 | 180 | 0.0 | 0.0 | 0.00 | 0.00 | 0.00 | 81 | 982.0 |
| 20260503035655 | 0 | 180 | 0.0 | 0.0 | 0.00 | 0.00 | 0.00 | 82 | 982.0 |
| 20260503035155 | 0 | 180 | 0.0 | 0.0 | 0.00 | 0.00 | 0.00 | 83 | 982.0 |
| 20260503034655 | 0 | 180 | 0.0 | 0.0 | 0.00 | 0.00 | 0.00 | 84 | 982.0 |
| 20260503034155 | 0 | 180 | 0.0 | 0.0 | 0.00 | 0.00 | 0.00 | 84 | 982.0 |
| 20260503033655 | 0 | 180 | 0.0 | 0.0 | 0.00 | 0.00 | 0.00 | 84 | 982.0 |
| 20260503033155 | 0 | 180 | 0.0 | 0.0 | 0.00 | 0.00 | 0.00 | 85 | 982.0 |
| 20260503032655 | 0 | 180 | 0.0 | 0.0 | 0.00 | 0.00 | 0.00 | 85 | 982.0 |
| 20260503032157 | 0 | 180 | 0.0 | 0.0 | 0.00 | 0.00 | 0.00 | 85 | 982.0 |
| 20260503031655 | 0 | 180 | 0.0 | 0.0 | 0.00 | 0.00 | 0.00 | 84 | 982.0 |
| 20260503031155 | 0 | 180 | 0.0 | 0.0 | 0.00 | 0.00 | 0.00 | 83 | 982.0 |
| 20260503030655 | 0 | 180 | 0.0 | 0.0 | 0.00 | 0.00 | 0.00 | 83 | 982.0 |
| 20260503030155 | 1 | 180 | 0.0 | 0.0 | 0.00 | 0.00 | 0.00 | 83 | 982.0 |
| 20260503025656 | 1 | 180 | 0.0 | 0.0 | 0.00 | 0.00 | 0.00 | 84 | 982.0 |
| 20260503025155 | 1 | 180 | 0.0 | 0.0 | 0.00 | 0.00 | 0.00 | 84 | 982.0 |
| 20260503024655 | 1 | 180 | 0.0 | 0.0 | 0.00 | 0.00 | 0.00 | 83 | 982.0 |
| 20260503024156 | 1 | 180 | 0.0 | 0.0 | 0.00 | 0.00 | 0.00 | 82 | 982.0 |
| 20260503023655 | 1 | 180 | 0.0 | 0.0 | 0.00 | 0.00 | 0.00 | 82 | 982.0 |
| 20260503023156 | 1 | 180 | 0.0 | 0.0 | 0.00 | 0.00 | 0.00 | 82 | 982.0 |
| 20260503022655 | 1 | 180 | 0.0 | 0.0 | 0.00 | 0.00 | 0.00 | 81 | 982.0 |
| 20260503022155 | 1 | 180 | 0.0 | 0.0 | 0.00 | 0.00 | 0.00 | 79 | 982.0 |
| 20260503021655 | 1 | 180 | 0.0 | 0.0 | 0.00 | 0.00 | 0.00 | 79 | 982.0 |
| 20260503021156 | 1 | 180 | 0.0 | 0.0 | 0.00 | 0.00 | 0.00 | 79 | 983.0 |
| 20260503020656 | 1 | 180 | 0.0 | 0.0 | 0.00 | 0.00 | 0.00 | 78 | 982.0 |
| 20260503020155 | 1 | 180 | 0.0 | 1.6 | 0.00 | 0.00 | 0.00 | 78 | 982.0 |
| 20260503015655 | 1 | 180 | 0.0 | 0.0 | 0.00 | 0.00 | 0.00 | 76 | 982.0 |
| 20260503015155 | 1 | 180 | 0.0 | 0.0 | 0.00 | 0.00 | 0.00 | 74 | 982.0 |
| 20260503014655 | 2 | 180 | 0.0 | 0.0 | 0.00 | 0.00 | 0.00 | 72 | 982.0 |
| 20260503014155 | 2 | 180 | 0.0 | 0.0 | 0.00 | 0.00 | 0.00 | 71 | 982.0 |
| 20260503013655 | 2 | 180 | 0.0 | 0.0 | 0.00 | 0.00 | 0.00 | 69 | 982.0 |
| 20260503013156 | 3 | 180 | 0.0 | 0.0 | 0.00 | 0.00 | 0.00 | 68 | 982.0 |
| 20260503012655 | 3 | 180 | 0.0 | 0.0 | 0.00 | 0.00 | 0.00 | 67 | 982.0 |
| 20260503012155 | 3 | 181 | 0.0 | 0.0 | 0.00 | 0.00 | 0.00 | 66 | 982.0 |
| 20260503011655 | 4 | 181 | 0.0 | 1.6 | 0.00 | 0.00 | 0.00 | 65 | 982.0 |
| 20260503011155 | 4 | 180 | 0.0 | 0.0 | 0.00 | 0.00 | 0.00 | 64 | 982.0 |
| 20260503010655 | 4 | 180 | 0.0 | 0.0 | 0.00 | 0.00 | 0.00 | 64 | 982.0 |
| 20260503010155 | 4 | 180 | 0.0 | 0.0 | 0.00 | 0.00 | 0.00 | 61 | 982.0 |
| 20260503005656 | 5 | 180 | 0.0 | 0.0 | 0.00 | 0.00 | 0.00 | 60 | 982.0 |
| 20260503005155 | 5 | 180 | 0.0 | 0.0 | 0.00 | 0.00 | 0.00 | 57 | 982.0 |
| 20260503004656 | 5 | 180 | 0.0 | 0.0 | 0.00 | 0.00 | 0.00 | 54 | 982.0 |
| 20260503004155 | 6 | 185 | 0.0 | 0.0 | 0.00 | 0.00 | 0.00 | 53 | 982.0 |
| 20260503003655 | 6 | 200 | 0.0 | 1.6 | 0.00 | 0.00 | 0.00 | 52 | 982.0 |
| 20260503003155 | 6 | 200 | 0.0 | 0.0 | 0.00 | 0.00 | 0.00 | 52 | 982.0 |
| 20260503002655 | 7 | 206 | 1.6 | 1.6 | 0.00 | 0.00 | 0.00 | 51 | 982.0 |
| 20260503002155 | 7 | 211 | 1.6 | 3.2 | 0.00 | 0.00 | 0.00 | 51 | 982.0 |
| 20260503001656 | 7 | 211 | 0.0 | 0.0 | 0.00 | 0.00 | 0.00 | 51 | 982.0 |
| 20260503001155 | 7 | 212 | 0.0 | 0.0 | 0.00 | 0.00 | 0.00 | 50 | 982.0 |
| 20260503000655 | 7 | 266 | 1.6 | 1.6 | 0.00 | 0.00 | 0.00 | 49 | 982.0 |
| 20260503000155 | 8 | 270 | 3.2 | 3.2 | 0.00 | 0.00 | 0.00 | 47 | 982.0 |
| 20260502235655 | 8 | 262 | 1.6 | 9.7 | 0.00 | 0.00 | 0.00 | 46 | 982.0 |
| 20260502235154 | 8 | 274 | 4.8 | 6.4 | 0.00 | 0.00 | 0.00 | 46 | 982.0 |
| 20260502234655 | 8 | 275 | 4.8 | 9.7 | 0.00 | 0.00 | 0.00 | 45 | 982.0 |
| 20260502234155 | 8 | 283 | 3.2 | 9.7 | 0.00 | 0.00 | 0.00 | 46 | 982.0 |
| 20260502233655 | 8 | 273 | 3.2 | 4.8 | 0.00 | 0.00 | 0.00 | 47 | 982.0 |
| 20260502233155 | 8 | 259 | 3.2 | 3.2 | 0.00 | 0.00 | 0.00 | 47 | 982.0 |
| 20260502232657 | 8 | 271 | 0.0 | 6.4 | 0.00 | 0.00 | 0.00 | 47 | 982.0 |
| 20260502232155 | 8 | 294 | 1.6 | 9.7 | 0.00 | 0.00 | 0.00 | 46 | 982.0 |
| 20260502231655 | 8 | 292 | 6.4 | 11.3 | 0.00 | 0.00 | 0.00 | 44 | 982.0 |
| 20260502231155 | 8 | 251 | 6.4 | 11.3 | 0.00 | 0.00 | 0.00 | 44 | 982.0 |
| 20260502230655 | 8 | 265 | 3.2 | 6.4 | 0.00 | 0.00 | 0.00 | 44 | 982.0 |
| 20260502230156 | 8 | 274 | 4.8 | 9.7 | 0.00 | 0.00 | 0.00 | 43 | 982.0 |
| 20260502225655 | 8 | 302 | 4.8 | 9.7 | 0.00 | 0.00 | 0.00 | 44 | 982.0 |
| 20260502225155 | 8 | 289 | 6.4 | 11.3 | 0.00 | 0.00 | 0.00 | 44 | 982.0 |
| 20260502224655 | 8 | 267 | 4.8 | 11.3 | 0.00 | 0.00 | 0.00 | 42 | 982.0 |
| 20260502224155 | 8 | 321 | 3.2 | 3.2 | 0.00 | 0.00 | 0.00 | 45 | 982.0 |
| 20260502223655 | 8 | 344 | 6.4 | 6.4 | 0.00 | 0.00 | 0.00 | 43 | 982.0 |
| 20260502223156 | 8 | 248 | 4.8 | 6.4 | 0.00 | 0.00 | 0.00 | 46 | 982.0 |
| 20260502222655 | 8 | 273 | 3.2 | 4.8 | 0.00 | 0.00 | 0.00 | 44 | 982.0 |
| 20260502222155 | 8 | 340 | 3.2 | 6.4 | 0.00 | 0.00 | 0.00 | 43 | 982.0 |
| 20260502221655 | 8 | 298 | 4.8 | 6.4 | 0.00 | 0.00 | 0.00 | 43 | 982.0 |
| 20260502221155 | 8 | 330 | 4.8 | 4.8 | 0.00 | 0.00 | 0.00 | 42 | 982.0 |
| 20260502220655 | 9 | 309 | 4.8 | 17.7 | 0.00 | 0.00 | 0.00 | 40 | 982.0 |
| 20260502220155 | 8 | 337 | 8.0 | 11.3 | 0.00 | 0.00 | 0.00 | 41 | 982.0 |
| 20260502215655 | 8 | 321 | 3.2 | 4.8 | 0.00 | 0.00 | 0.00 | 45 | 982.0 |
| 20260502215155 | 8 | 272 | 6.4 | 12.9 | 0.00 | 0.00 | 0.00 | 44 | 982.0 |
| 20260502214655 | 9 | 298 | 4.8 | 11.3 | 0.00 | 0.00 | 0.00 | 42 | 982.0 |
| 20260502214156 | 9 | 275 | 4.8 | 9.7 | 0.00 | 0.00 | 0.00 | 41 | 982.0 |
| 20260502213655 | 9 | 14 | 4.8 | 9.7 | 0.00 | 0.00 | 0.00 | 44 | 982.0 |
| 20260502213155 | 8 | 303 | 3.2 | 4.8 | 0.00 | 0.00 | 0.00 | 44 | 982.0 |
| 20260502212655 | 8 | 246 | 3.2 | 11.3 | 0.00 | 0.00 | 0.00 | 43 | 982.0 |
| 20260502212155 | 8 | 298 | 4.8 | 11.3 | 0.00 | 0.00 | 0.00 | 45 | 982.0 |
| 20260502211655 | 8 | 2 | 6.4 | 11.3 | 0.00 | 0.00 | 0.00 | 42 | 982.0 |
| 20260502211155 | 8 | 313 | 3.2 | 11.3 | 0.00 | 0.00 | 0.00 | 43 | 982.0 |
| 20260502210655 | 8 | 356 | 8.0 | 12.9 | 0.00 | 0.00 | 0.00 | 43 | 982.0 |
| 20260502210155 | 8 | 200 | 3.2 | 11.3 | 0.00 | 0.00 | 0.00 | 43 | 982.0 |
| 20260502205657 | 8 | 347 | 8.0 | 9.7 | 0.00 | 0.00 | 0.00 | 42 | 982.0 |
| 20260502205155 | 8 | 278 | 8.0 | 14.5 | 0.00 | 0.00 | 0.00 | 41 | 982.0 |
| 20260502204655 | 8 | 273 | 6.4 | 12.9 | 0.00 | 0.00 | 0.00 | 43 | 982.0 |
| 20260502204155 | 9 | 285 | 6.4 | 14.5 | 0.00 | 0.00 | 0.00 | 40 | 982.0 |
| 20260502203655 | 8 | 355 | 6.4 | 11.3 | 0.00 | 0.00 | 0.00 | 43 | 982.0 |
| 20260502203155 | 8 | 308 | 3.2 | 6.4 | 0.00 | 0.00 | 0.00 | 40 | 982.0 |
| 20260502202655 | 8 | 355 | 9.7 | 14.5 | 0.00 | 0.00 | 0.00 | 40 | 983.0 |
| 20260502202155 | 8 | 275 | 3.2 | 9.7 | 0.00 | 0.00 | 0.00 | 42 | 983.0 |
| 20260502201655 | 8 | 309 | 4.8 | 11.3 | 0.00 | 0.00 | 0.00 | 43 | 982.0 |
| 20260502201155 | 8 | 285 | 9.7 | 14.5 | 0.00 | 0.00 | 0.00 | 43 | 983.0 |
| 20260502200655 | 8 | 300 | 9.7 | 14.5 | 0.00 | 0.00 | 0.00 | 40 | 983.0 |
| 20260502200155 | 8 | 298 | 8.0 | 9.7 | 0.00 | 0.00 | 0.00 | 40 | 983.0 |
| 20260502195655 | 8 | 321 | 4.8 | 6.4 | 0.00 | 0.00 | 0.00 | 42 | 983.0 |
| 20260502195156 | 8 | 254 | 6.4 | 11.3 | 0.00 | 0.00 | 0.00 | 43 | 983.0 |
| 20260502194655 | 8 | 260 | 9.7 | 14.5 | 0.00 | 0.00 | 0.00 | 41 | 983.0 |
| 20260502194157 | 8 | 256 | 3.2 | 14.5 | 0.00 | 0.00 | 0.00 | 42 | 983.0 |
| 20260502193655 | 8 | 291 | 3.2 | 14.5 | 0.00 | 0.00 | 0.00 | 43 | 983.0 |